START_TIME,STEP,MOV.,P11,t_acc.,P23,t_acc.,P27,t_acc.,A4,t_acc.
1979-07-17 00:00:23.130 ,0,0,9.,4.8,0.,4.8,0.,4.8,0.,4.8
1979-07-17 00:00:27.930 ,0,0,6.,4.8,0.,4.8,0.,4.8,0.,4.8
1979-07-17 00:00:32.730 ,0,0,12.,4.8,0.,4.8,0.,4.8,0.,4.8
1979-07-17 00:00:37.530 ,0,0,12.,4.8,0.,4.8,0.,4.8,0.,4.8
1979-07-17 00:00:42.330 ,0,0,3.,4.8,0.,4.8,0.,4.8,0.,4.8
1979-07-17 00:00:47.130 ,1,0,7.,4.8,0.,4.8,0.,4.8,0.,4.8
1979-07-17 00:00:51.930 ,1,0,14.,4.8,0.,4.8,0.,4.8,0.,4.8
1979-07-17 00:00:56.730 ,1,0,9.,4.8,0.,4.8,0.,4.8,0.,4.8
1979-07-17 00:01:01.530 ,1,0,6.,4.8,0.,4.8,0.,4.8,0.,4.8
1979-07-17 00:01:06.330 ,1,0,10.,4.8,0.,4.8,0.,4.8,0.,4.8
1979-07-17 00:01:11.130 ,1,0,11.,4.8,0.,4.8,0.,4.8,0.,4.8
1979-07-17 00:01:15.930 ,1,0,14.,4.8,0.,4.8,0.,4.8,0.,4.8
1979-07-17 00:01:20.730 ,1,0,10.,4.8,0.,4.8,0.,4.8,0.,4.8
1979-07-17 00:01:25.530 ,1,0,11.,4.8,0.,4.8,0.,4.8,0.,4.8
1979-07-17 00:01:30.330 ,1,0,14.,4.8,0.,4.8,0.,4.8,1.,4.8
1979-07-17 00:01:35.130 ,2,0,18.,4.8,0.,4.8,0.,4.8,0.,4.8
1979-07-17 00:01:39.930 ,2,0,9.,4.8,0.,4.8,0.,4.8,0.,4.8
1979-07-17 00:01:44.730 ,2,0,18.,4.8,0.,4.8,0.,4.8,1.,4.8
1979-07-17 00:01:49.530 ,2,0,13.,4.8,0.,4.8,0.,4.8,0.,4.8
1979-07-17 00:01:54.330 ,2,0,12.,4.8,0.,4.8,0.,4.8,0.,4.8
1979-07-17 00:01:59.130 ,2,0,7.,4.8,0.,4.8,0.,4.8,0.,4.8
1979-07-17 00:02:03.930 ,2,0,9.,4.8,0.,4.8,0.,4.8,0.,4.8
1979-07-17 00:02:08.730 ,2,0,11.,4.8,0.,4.8,0.,4.8,0.,4.8
1979-07-17 00:02:13.530 ,2,0,9.,4.8,0.,4.8,0.,4.8,0.,4.8
1979-07-17 00:02:18.330 ,2,0,14.,4.8,0.,4.8,0.,4.8,0.,4.8
1979-07-17 00:02:23.130 ,3,0,11.,4.8,0.,4.8,0.,4.8,0.,4.8
1979-07-17 00:02:27.930 ,3,0,11.,4.8,0.,4.8,0.,4.8,0.,4.8
1979-07-17 00:02:32.730 ,3,0,9.,4.8,0.,4.8,0.,4.8,0.,4.8
1979-07-17 00:02:37.530 ,3,0,11.,4.8,0.,4.8,0.,4.8,0.,4.8
1979-07-17 00:02:42.330 ,3,0,12.,4.8,0.,4.8,0.,4.8,0.,4.8
1979-07-17 00:02:47.130 ,3,0,11.,4.8,0.,4.8,0.,4.8,0.,4.8
1979-07-17 00:02:51.930 ,3,0,12.,4.8,0.,4.8,0.,4.8,0.,4.8
1979-07-17 00:02:56.730 ,3,0,17.,4.8,0.,4.8,0.,4.8,0.,4.8
1979-07-17 00:03:01.530 ,3,0,8.,4.8,0.,4.8,0.,4.8,0.,4.8
1979-07-17 00:03:06.330 ,3,0,10.,4.8,0.,4.8,0.,4.8,1.,4.8
1979-07-17 00:03:11.130 ,4,0,8.,4.8,0.,4.8,0.,4.8,0.,4.8
1979-07-17 00:03:15.930 ,4,0,15.,4.8,0.,4.8,0.,4.8,0.,4.8
1979-07-17 00:03:20.730 ,4,0,13.,4.8,0.,4.8,0.,4.8,0.,4.8
1979-07-17 00:03:25.530 ,4,0,8.,4.8,0.,4.8,0.,4.8,0.,4.8
1979-07-17 00:03:30.330 ,4,0,12.,4.8,0.,4.8,0.,4.8,0.,4.8
1979-07-17 00:03:35.130 ,4,0,7.,4.8,0.,4.8,0.,4.8,1.,4.8
1979-07-17 00:03:39.930 ,4,0,11.,4.8,0.,4.8,0.,4.8,0.,4.8
1979-07-17 00:03:44.730 ,4,0,12.,4.8,0.,4.8,0.,4.8,0.,4.8
1979-07-17 00:03:49.530 ,4,0,10.,4.8,0.,4.8,0.,4.8,0.,4.8
1979-07-17 00:03:54.330 ,4,0,9.,4.8,0.,4.8,0.,4.8,0.,4.8
1979-07-17 00:03:59.130 ,5,0,12.,4.8,0.,4.8,0.,4.8,0.,4.8
1979-07-17 00:04:03.930 ,5,0,14.,4.8,0.,4.8,0.,4.8,0.,4.8
1979-07-17 00:04:08.730 ,5,0,15.,4.8,0.,4.8,0.,4.8,0.,4.8
1979-07-17 00:04:13.530 ,5,0,8.,4.8,0.,4.8,0.,4.8,0.,4.8
1979-07-17 00:04:18.330 ,5,0,12.,4.8,0.,4.8,0.,4.8,0.,4.8
1979-07-17 00:04:23.130 ,5,0,11.,4.8,0.,4.8,0.,4.8,0.,4.8
1979-07-17 00:04:27.930 ,5,0,13.,4.8,0.,4.8,0.,4.8,0.,4.8
1979-07-17 00:04:32.730 ,5,0,8.,4.8,0.,4.8,0.,4.8,0.,4.8
1979-07-17 00:04:37.530 ,5,0,13.,4.8,0.,4.8,0.,4.8,0.,4.8
1979-07-17 00:04:42.330 ,5,0,10.,4.8,0.,4.8,0.,4.8,0.,4.8
1979-07-17 00:04:47.130 ,6,0,11.,4.8,0.,4.8,0.,4.8,0.,4.8
1979-07-17 00:04:51.930 ,6,0,11.,4.8,0.,4.8,0.,4.8,0.,4.8
1979-07-17 00:04:56.730 ,6,0,12.,4.8,0.,4.8,0.,4.8,0.,4.8
1979-07-17 00:05:01.530 ,6,0,11.,4.8,0.,4.8,0.,4.8,1.,4.8
1979-07-17 00:05:06.330 ,6,0,11.,4.8,0.,4.8,0.,4.8,0.,4.8
1979-07-17 00:05:11.130 ,6,0,18.,4.8,0.,4.8,0.,4.8,0.,4.8
1979-07-17 00:05:15.930 ,6,0,14.,4.8,0.,4.8,0.,4.8,0.,4.8
1979-07-17 00:05:20.730 ,6,0,10.,4.8,0.,4.8,0.,4.8,0.,4.8
1979-07-17 00:05:25.530 ,6,0,9.,4.8,0.,4.8,0.,4.8,0.,4.8
1979-07-17 00:05:30.330 ,6,0,11.,4.8,0.,4.8,0.,4.8,0.,4.8
1979-07-17 00:05:35.130 ,7,0,15.,4.8,0.,4.8,0.,4.8,0.,4.8
1979-07-17 00:05:39.930 ,7,0,9.,4.8,0.,4.8,0.,4.8,0.,4.8
1979-07-17 00:05:44.730 ,7,0,8.,4.8,0.,4.8,0.,4.8,0.,4.8
1979-07-17 00:05:49.530 ,7,0,9.,4.8,0.,4.8,0.,4.8,0.,4.8
1979-07-17 00:05:54.330 ,7,0,8.,4.8,0.,4.8,0.,4.8,0.,4.8
1979-07-17 00:05:59.130 ,7,0,8.,4.8,0.,4.8,0.,4.8,0.,4.8
1979-07-17 00:06:03.930 ,7,0,3.,4.8,0.,4.8,0.,4.8,0.,4.8
1979-07-17 00:06:08.730 ,7,0,8.,4.8,0.,4.8,0.,4.8,0.,4.8
1979-07-17 00:06:13.530 ,7,0,8.,4.8,0.,4.8,0.,4.8,0.,4.8
1979-07-17 00:06:18.330 ,7,0,6.,4.8,0.,4.8,0.,4.8,0.,4.8
1979-07-17 00:06:23.130 ,7,0,11.,4.8,0.,4.8,0.,4.8,0.,4.8
1979-07-17 00:06:27.930 ,7,0,8.,4.8,0.,4.8,0.,4.8,0.,4.8
1979-07-17 00:06:32.730 ,7,0,3.,4.8,0.,4.8,0.,4.8,0.,4.8
1979-07-17 00:06:37.530 ,7,0,3.,4.8,0.,4.8,0.,4.8,0.,4.8
1979-07-17 00:06:42.330 ,7,0,4.,4.8,0.,4.8,0.,4.8,0.,4.8
1979-07-17 00:06:47.130 ,7,0,8.,4.8,0.,4.8,0.,4.8,0.,4.8
1979-07-17 00:06:51.930 ,7,0,9.,4.8,0.,4.8,0.,4.8,0.,4.8
1979-07-17 00:06:56.730 ,7,0,5.,4.8,0.,4.8,0.,4.8,0.,4.8
1979-07-17 00:07:01.530 ,7,0,10.,4.8,0.,4.8,0.,4.8,0.,4.8
1979-07-17 00:07:06.330 ,7,0,7.,4.8,0.,4.8,0.,4.8,0.,4.8
1979-07-17 00:07:11.130 ,0,0,3.,4.8,0.,4.8,0.,4.8,0.,4.8
1979-07-17 00:07:15.930 ,0,0,6.,4.8,0.,4.8,0.,4.8,0.,4.8
1979-07-17 00:07:20.730 ,0,0,11.,4.8,0.,4.8,0.,4.8,1.,4.8
1979-07-17 00:07:25.530 ,0,0,10.,4.8,0.,4.8,0.,4.8,0.,4.8
1979-07-17 00:07:30.330 ,0,0,8.,4.8,0.,4.8,0.,4.8,0.,4.8
1979-07-17 00:07:35.130 ,0,0,,0,,0,,0,,0
1979-07-17 00:07:39.930 ,0,0,,0,,0,,0,,0
1979-07-17 00:07:44.730 ,0,0,,0,,0,,0,,0
1979-07-17 00:07:49.530 ,0,0,,0,,0,,0,,0
1979-07-17 00:07:54.330 ,0,0,,0,,0,,0,,0
1979-07-17 00:07:35.130 ,6,0,7.,4.8,0.,4.8,0.,4.8,0.,4.8
1979-07-17 00:07:39.930 ,6,0,6.,4.8,0.,4.8,0.,4.8,0.,4.8
1979-07-17 00:07:44.730 ,6,0,12.,4.8,0.,4.8,0.,4.8,0.,4.8
1979-07-17 00:07:49.530 ,6,0,8.,4.8,0.,4.8,0.,4.8,0.,4.8
1979-07-17 00:07:54.330 ,6,0,10.,4.8,0.,4.8,0.,4.8,0.,4.8
1979-07-17 00:07:59.130 ,5,0,8.,4.8,0.,4.8,0.,4.8,0.,4.8
1979-07-17 00:08:03.930 ,5,0,10.,4.8,0.,4.8,0.,4.8,0.,4.8
1979-07-17 00:08:08.730 ,5,0,14.,4.8,0.,4.8,0.,4.8,0.,4.8
1979-07-17 00:08:13.530 ,5,0,8.,4.8,0.,4.8,0.,4.8,0.,4.8
1979-07-17 00:08:18.330 ,5,0,11.,4.8,0.,4.8,0.,4.8,0.,4.8
1979-07-17 00:08:23.130 ,5,0,6.,4.8,0.,4.8,0.,4.8,0.,4.8
1979-07-17 00:08:27.930 ,5,0,12.,4.8,0.,4.8,0.,4.8,0.,4.8
1979-07-17 00:08:32.730 ,5,0,14.,4.8,0.,4.8,0.,4.8,0.,4.8
1979-07-17 00:08:37.530 ,5,0,6.,4.8,0.,4.8,0.,4.8,0.,4.8
1979-07-17 00:08:42.330 ,5,0,16.,4.8,0.,4.8,0.,4.8,0.,4.8
1979-07-17 00:08:47.130 ,4,0,15.,4.8,0.,4.8,0.,4.8,1.,4.8
1979-07-17 00:08:51.930 ,4,0,6.,4.8,0.,4.8,0.,4.8,0.,4.8
1979-07-17 00:08:56.730 ,4,0,10.,4.8,0.,4.8,0.,4.8,0.,4.8
1979-07-17 00:09:01.530 ,4,0,8.,4.8,0.,4.8,0.,4.8,0.,4.8
1979-07-17 00:09:06.330 ,4,0,13.,4.8,0.,4.8,0.,4.8,0.,4.8
1979-07-17 00:09:11.130 ,4,0,8.,4.8,0.,4.8,0.,4.8,1.,4.8
1979-07-17 00:09:15.930 ,4,0,16.,4.8,0.,4.8,0.,4.8,0.,4.8
1979-07-17 00:09:20.730 ,4,0,6.,4.8,0.,4.8,0.,4.8,0.,4.8
1979-07-17 00:09:25.530 ,4,0,5.,4.8,0.,4.8,0.,4.8,0.,4.8
1979-07-17 00:09:30.330 ,4,0,9.,4.8,0.,4.8,0.,4.8,0.,4.8
1979-07-17 00:09:35.130 ,3,0,7.,4.8,0.,4.8,0.,4.8,0.,4.8
1979-07-17 00:09:39.930 ,3,0,6.,4.8,0.,4.8,0.,4.8,0.,4.8
1979-07-17 00:09:44.730 ,3,0,4.,4.8,0.,4.8,0.,4.8,0.,4.8
1979-07-17 00:09:49.530 ,3,0,5.,4.8,0.,4.8,0.,4.8,0.,4.8
1979-07-17 00:09:54.330 ,3,0,7.,4.8,0.,4.8,0.,4.8,0.,4.8
1979-07-17 00:09:59.130 ,3,0,5.,4.8,0.,4.8,0.,4.8,0.,4.8
1979-07-17 00:10:03.930 ,3,0,5.,4.8,0.,4.8,0.,4.8,0.,4.8
1979-07-17 00:10:08.730 ,3,0,4.,4.8,0.,4.8,0.,4.8,0.,4.8
1979-07-17 00:10:13.530 ,3,0,8.,4.8,0.,4.8,0.,4.8,0.,4.8
1979-07-17 00:10:18.330 ,3,0,8.,4.8,0.,4.8,0.,4.8,0.,4.8
1979-07-17 00:10:23.130 ,2,0,6.,4.8,0.,4.8,0.,4.8,0.,4.8
1979-07-17 00:10:27.930 ,2,0,7.,4.8,0.,4.8,0.,4.8,0.,4.8
1979-07-17 00:10:32.730 ,2,0,10.,4.8,0.,4.8,0.,4.8,0.,4.8
1979-07-17 00:10:37.530 ,2,0,10.,4.8,0.,4.8,0.,4.8,0.,4.8
1979-07-17 00:10:42.330 ,2,0,10.,4.8,0.,4.8,0.,4.8,0.,4.8
1979-07-17 00:10:47.130 ,2,0,6.,4.8,0.,4.8,0.,4.8,0.,4.8
1979-07-17 00:10:51.930 ,2,0,8.,4.8,0.,4.8,0.,4.8,0.,4.8
1979-07-17 00:10:56.730 ,2,0,9.,4.8,0.,4.8,0.,4.8,0.,4.8
1979-07-17 00:11:01.530 ,2,0,8.,4.8,0.,4.8,0.,4.8,0.,4.8
1979-07-17 00:11:06.330 ,2,0,8.,4.8,0.,4.8,0.,4.8,0.,4.8
1979-07-17 00:11:11.130 ,1,0,16.,4.8,0.,4.8,0.,4.8,0.,4.8
1979-07-17 00:11:15.930 ,1,0,10.,4.8,0.,4.8,0.,4.8,0.,4.8
1979-07-17 00:11:20.730 ,1,0,12.,4.8,0.,4.8,0.,4.8,0.,4.8
1979-07-17 00:11:25.530 ,1,0,6.,4.8,0.,4.8,0.,4.8,0.,4.8
1979-07-17 00:11:30.330 ,1,0,8.,4.8,0.,4.8,0.,4.8,0.,4.8
1979-07-17 00:11:35.130 ,1,0,7.,4.8,0.,4.8,0.,4.8,0.,4.8
1979-07-17 00:11:39.930 ,1,0,9.,4.8,0.,4.8,0.,4.8,0.,4.8
1979-07-17 00:11:44.730 ,1,0,8.,4.8,0.,4.8,0.,4.8,0.,4.8
1979-07-17 00:11:49.530 ,1,0,8.,4.8,0.,4.8,0.,4.8,0.,4.8
1979-07-17 00:11:54.330 ,1,0,12.,4.8,0.,4.8,0.,4.8,0.,4.8
1979-07-17 00:11:59.130 ,0,0,3.,4.8,0.,4.8,0.,4.8,0.,4.8
1979-07-17 00:12:03.930 ,0,0,3.,4.8,0.,4.8,0.,4.8,1.,4.8
1979-07-17 00:12:08.730 ,0,0,5.,4.8,0.,4.8,0.,4.8,0.,4.8
1979-07-17 00:12:13.530 ,0,0,11.,4.8,0.,4.8,0.,4.8,0.,4.8
1979-07-17 00:12:18.330 ,0,0,8.,4.8,0.,4.8,0.,4.8,0.,4.8
1979-07-17 00:12:23.130 ,0,0,15.,4.8,0.,4.8,0.,4.8,0.,4.8
1979-07-17 00:12:27.930 ,0,0,10.,4.8,0.,4.8,0.,4.8,0.,4.8
1979-07-17 00:12:32.730 ,0,0,6.,4.8,0.,4.8,0.,4.8,0.,4.8
1979-07-17 00:12:37.530 ,0,0,12.,4.8,0.,4.8,0.,4.8,0.,4.8
1979-07-17 00:12:42.330 ,0,0,10.,4.8,0.,4.8,0.,4.8,0.,4.8
1979-07-17 00:12:47.130 ,0,0,10.,4.8,0.,4.8,0.,4.8,0.,4.8
1979-07-17 00:12:51.930 ,0,0,9.,4.8,0.,4.8,0.,4.8,0.,4.8
1979-07-17 00:12:56.730 ,0,0,4.,4.8,0.,4.8,0.,4.8,0.,4.8
1979-07-17 00:13:01.530 ,0,0,5.,4.8,0.,4.8,0.,4.8,0.,4.8
1979-07-17 00:13:06.330 ,0,0,4.,4.8,0.,4.8,0.,4.8,0.,4.8
1979-07-17 00:13:11.130 ,0,0,7.,4.8,0.,4.8,0.,4.8,0.,4.8
1979-07-17 00:13:15.930 ,0,0,10.,4.8,0.,4.8,0.,4.8,1.,4.8
1979-07-17 00:13:20.730 ,0,0,7.,4.8,0.,4.8,0.,4.8,0.,4.8
1979-07-17 00:13:25.530 ,0,0,8.,4.8,0.,4.8,0.,4.8,0.,4.8
1979-07-17 00:13:30.330 ,0,0,3.,4.8,0.,4.8,0.,4.8,0.,4.8
1979-07-17 00:13:35.130 ,1,0,5.,4.8,0.,4.8,0.,4.8,1.,4.8
1979-07-17 00:13:39.930 ,1,0,9.,4.8,0.,4.8,0.,4.8,0.,4.8
1979-07-17 00:13:44.730 ,1,0,7.,4.8,0.,4.8,0.,4.8,0.,4.8
1979-07-17 00:13:49.530 ,1,0,12.,4.8,0.,4.8,0.,4.8,0.,4.8
1979-07-17 00:13:54.330 ,1,0,11.,4.8,0.,4.8,0.,4.8,0.,4.8
1979-07-17 00:13:59.130 ,1,0,9.,4.8,0.,4.8,0.,4.8,0.,4.8
1979-07-17 00:14:03.930 ,1,0,9.,4.8,0.,4.8,0.,4.8,0.,4.8
1979-07-17 00:14:08.730 ,1,0,8.,4.8,0.,4.8,0.,4.8,0.,4.8
1979-07-17 00:14:13.530 ,1,0,8.,4.8,0.,4.8,0.,4.8,0.,4.8
1979-07-17 00:14:18.330 ,1,0,7.,4.8,0.,4.8,0.,4.8,0.,4.8
1979-07-17 00:14:23.130 ,2,0,7.,4.8,0.,4.8,0.,4.8,0.,4.8
1979-07-17 00:14:27.930 ,2,0,11.,4.8,0.,4.8,0.,4.8,0.,4.8
1979-07-17 00:14:32.730 ,2,0,6.,4.8,0.,4.8,0.,4.8,0.,4.8
1979-07-17 00:14:37.530 ,2,0,10.,4.8,0.,4.8,0.,4.8,1.,4.8
1979-07-17 00:14:42.330 ,2,0,7.,4.8,0.,4.8,0.,4.8,0.,4.8
1979-07-17 00:14:47.130 ,2,0,11.,4.8,0.,4.8,0.,4.8,0.,4.8
1979-07-17 00:14:51.930 ,2,0,11.,4.8,0.,4.8,0.,4.8,0.,4.8
1979-07-17 00:14:56.730 ,2,0,3.,4.8,0.,4.8,0.,4.8,0.,4.8
1979-07-17 00:15:01.530 ,2,0,10.,4.8,0.,4.8,0.,4.8,0.,4.8
1979-07-17 00:15:06.330 ,2,0,4.,4.8,0.,4.8,0.,4.8,0.,4.8
1979-07-17 00:15:11.130 ,3,0,8.,4.8,0.,4.8,0.,4.8,0.,4.8
1979-07-17 00:15:15.930 ,3,0,10.,4.8,0.,4.8,0.,4.8,0.,4.8
1979-07-17 00:15:20.730 ,3,0,9.,4.8,0.,4.8,0.,4.8,0.,4.8
1979-07-17 00:15:25.530 ,3,0,10.,4.8,0.,4.8,0.,4.8,0.,4.8
1979-07-17 00:15:30.330 ,3,0,8.,4.8,0.,4.8,0.,4.8,0.,4.8
1979-07-17 00:15:35.130 ,3,0,7.,4.8,0.,4.8,0.,4.8,0.,4.8
1979-07-17 00:15:39.930 ,3,0,4.,4.8,0.,4.8,0.,4.8,0.,4.8
1979-07-17 00:15:44.730 ,3,0,13.,4.8,0.,4.8,0.,4.8,0.,4.8
1979-07-17 00:15:49.530 ,3,0,8.,4.8,0.,4.8,0.,4.8,0.,4.8
1979-07-17 00:15:54.330 ,3,0,7.,4.8,0.,4.8,0.,4.8,1.,4.8
1979-07-17 00:15:59.130 ,4,0,8.,4.8,0.,4.8,0.,4.8,0.,4.8
1979-07-17 00:16:03.930 ,4,0,11.,4.8,0.,4.8,0.,4.8,0.,4.8
1979-07-17 00:16:08.730 ,4,0,14.,4.8,0.,4.8,0.,4.8,0.,4.8
1979-07-17 00:16:13.530 ,4,0,8.,4.8,0.,4.8,0.,4.8,0.,4.8
1979-07-17 00:16:18.330 ,4,0,11.,4.8,0.,4.8,0.,4.8,0.,4.8
1979-07-17 00:16:23.130 ,4,0,10.,4.8,0.,4.8,0.,4.8,0.,4.8
1979-07-17 00:16:27.930 ,4,0,17.,4.8,0.,4.8,0.,4.8,0.,4.8
1979-07-17 00:16:32.730 ,4,0,11.,4.8,0.,4.8,0.,4.8,0.,4.8
1979-07-17 00:16:37.530 ,4,0,9.,4.8,0.,4.8,0.,4.8,0.,4.8
1979-07-17 00:16:42.330 ,4,0,13.,4.8,0.,4.8,0.,4.8,0.,4.8
1979-07-17 00:16:47.130 ,5,0,14.,4.8,0.,4.8,0.,4.8,0.,4.8
1979-07-17 00:16:51.930 ,5,0,8.,4.8,0.,4.8,0.,4.8,0.,4.8
1979-07-17 00:16:56.730 ,5,0,11.,4.8,0.,4.8,0.,4.8,0.,4.8
1979-07-17 00:17:01.530 ,5,0,12.,4.8,0.,4.8,0.,4.8,0.,4.8
1979-07-17 00:17:06.330 ,5,0,3.,4.8,0.,4.8,0.,4.8,0.,4.8
1979-07-17 00:17:11.130 ,5,0,9.,4.8,0.,4.8,0.,4.8,0.,4.8
1979-07-17 00:17:15.930 ,5,0,8.,4.8,0.,4.8,0.,4.8,0.,4.8
1979-07-17 00:17:20.730 ,5,0,10.,4.8,0.,4.8,0.,4.8,0.,4.8
1979-07-17 00:17:25.530 ,5,0,10.,4.8,0.,4.8,0.,4.8,0.,4.8
1979-07-17 00:17:30.330 ,5,0,7.,4.8,0.,4.8,0.,4.8,0.,4.8
1979-07-17 00:17:35.130 ,6,0,15.,4.8,0.,4.8,0.,4.8,0.,4.8
1979-07-17 00:17:39.930 ,6,0,9.,4.8,0.,4.8,0.,4.8,0.,4.8
1979-07-17 00:17:44.730 ,6,0,14.,4.8,0.,4.8,0.,4.8,0.,4.8
1979-07-17 00:17:49.530 ,6,0,9.,4.8,0.,4.8,0.,4.8,0.,4.8
1979-07-17 00:17:54.330 ,6,0,13.,4.8,0.,4.8,0.,4.8,0.,4.8
1979-07-17 00:17:59.130 ,6,0,7.,4.8,0.,4.8,0.,4.8,0.,4.8
1979-07-17 00:18:03.930 ,6,0,9.,4.8,0.,4.8,0.,4.8,0.,4.8
1979-07-17 00:18:08.730 ,6,0,15.,4.8,0.,4.8,0.,4.8,0.,4.8
1979-07-17 00:18:13.530 ,6,0,8.,4.8,0.,4.8,0.,4.8,0.,4.8
1979-07-17 00:18:18.330 ,6,0,17.,4.8,0.,4.8,0.,4.8,0.,4.8
1979-07-17 00:18:23.130 ,7,0,11.,4.8,0.,4.8,0.,4.8,0.,4.8
1979-07-17 00:18:27.930 ,7,0,9.,4.8,0.,4.8,0.,4.8,0.,4.8
1979-07-17 00:18:32.730 ,7,0,6.,4.8,0.,4.8,0.,4.8,0.,4.8
1979-07-17 00:18:37.530 ,7,0,10.,4.8,0.,4.8,0.,4.8,0.,4.8
1979-07-17 00:18:42.330 ,7,0,6.,4.8,0.,4.8,0.,4.8,0.,4.8
1979-07-17 00:18:47.130 ,7,0,3.,4.8,0.,4.8,0.,4.8,0.,4.8
1979-07-17 00:18:51.930 ,7,0,5.,4.8,0.,4.8,0.,4.8,0.,4.8
1979-07-17 00:18:56.730 ,7,0,9.,4.8,0.,4.8,0.,4.8,0.,4.8
1979-07-17 00:19:01.530 ,7,0,12.,4.8,0.,4.8,0.,4.8,0.,4.8
1979-07-17 00:19:06.330 ,7,0,5.,4.8,0.,4.8,0.,4.8,0.,4.8
1979-07-17 00:19:11.130 ,3,1,4.,4.8,0.,4.8,0.,4.8,0.,4.8
1979-07-17 00:19:15.930 ,3,1,10.,4.8,0.,4.8,0.,4.8,0.,4.8
1979-07-17 00:19:20.730 ,3,1,8.,4.8,0.,4.8,0.,4.8,0.,4.8
1979-07-17 00:19:25.530 ,3,1,20.,4.8,0.,4.8,0.,4.8,0.,4.8
1979-07-17 00:19:30.330 ,3,1,5.,4.8,0.,4.8,0.,4.8,0.,4.8
1979-07-17 00:19:35.130 ,0,1,11.,4.8,0.,4.8,0.,4.8,0.,4.8
1979-07-17 00:19:39.930 ,0,1,14.,4.8,0.,4.8,0.,4.8,1.,4.8
1979-07-17 00:19:44.730 ,0,1,9.,4.8,0.,4.8,0.,4.8,0.,4.8
1979-07-17 00:19:49.530 ,0,1,16.,4.8,0.,4.8,0.,4.8,0.,4.8
1979-07-17 00:19:54.330 ,0,1,10.,4.8,0.,4.8,0.,4.8,0.,4.8
1979-07-17 00:19:59.130 ,4,1,11.,4.8,0.,4.8,0.,4.8,0.,4.8
1979-07-17 00:20:03.930 ,4,1,9.,4.8,0.,4.8,0.,4.8,0.,4.8
1979-07-17 00:20:08.730 ,4,1,12.,4.8,0.,4.8,0.,4.8,0.,4.8
1979-07-17 00:20:13.530 ,4,1,11.,4.8,0.,4.8,0.,4.8,0.,4.8
1979-07-17 00:20:18.330 ,4,1,10.,4.8,0.,4.8,0.,4.8,0.,4.8
1979-07-17 00:20:23.130 ,7,1,6.,4.8,0.,4.8,0.,4.8,0.,4.8
1979-07-17 00:20:27.930 ,7,1,8.,4.8,0.,4.8,0.,4.8,1.,4.8
1979-07-17 00:20:32.730 ,7,1,11.,4.8,0.,4.8,0.,4.8,0.,4.8
1979-07-17 00:20:37.530 ,7,1,12.,4.8,0.,4.8,0.,4.8,0.,4.8
1979-07-17 00:20:42.330 ,7,1,5.,4.8,0.,4.8,0.,4.8,0.,4.8
1979-07-17 00:20:47.130 ,3,1,6.,4.8,0.,4.8,0.,4.8,0.,4.8
1979-07-17 00:20:51.930 ,3,1,10.,4.8,0.,4.8,0.,4.8,0.,4.8
1979-07-17 00:20:56.730 ,3,1,10.,4.8,0.,4.8,0.,4.8,0.,4.8
1979-07-17 00:21:01.530 ,3,1,11.,4.8,0.,4.8,0.,4.8,0.,4.8
1979-07-17 00:21:06.330 ,3,1,19.,4.8,0.,4.8,0.,4.8,0.,4.8
1979-07-17 00:21:11.130 ,0,1,7.,4.8,0.,4.8,0.,4.8,0.,4.8
1979-07-17 00:21:15.930 ,0,1,8.,4.8,0.,4.8,0.,4.8,0.,4.8
1979-07-17 00:21:20.730 ,0,1,11.,4.8,0.,4.8,0.,4.8,0.,4.8
1979-07-17 00:21:25.530 ,0,1,14.,4.8,0.,4.8,0.,4.8,1.,4.8
1979-07-17 00:21:30.330 ,0,1,18.,4.8,0.,4.8,0.,4.8,0.,4.8
1979-07-17 00:21:35.130 ,4,1,18.,4.8,0.,4.8,0.,4.8,0.,4.8
1979-07-17 00:21:39.930 ,4,1,11.,4.8,0.,4.8,0.,4.8,0.,4.8
1979-07-17 00:21:44.730 ,4,1,8.,4.8,0.,4.8,0.,4.8,0.,4.8
1979-07-17 00:21:49.530 ,4,1,9.,4.8,0.,4.8,0.,4.8,0.,4.8
1979-07-17 00:21:54.330 ,4,1,5.,4.8,0.,4.8,0.,4.8,0.,4.8
1979-07-17 00:21:59.130 ,7,1,14.,4.8,0.,4.8,0.,4.8,0.,4.8
1979-07-17 00:22:03.930 ,7,1,5.,4.8,0.,4.8,0.,4.8,0.,4.8
1979-07-17 00:22:08.730 ,7,1,9.,4.8,0.,4.8,0.,4.8,0.,4.8
1979-07-17 00:22:13.530 ,7,1,6.,4.8,0.,4.8,0.,4.8,0.,4.8
1979-07-17 00:22:18.330 ,7,1,5.,4.8,0.,4.8,0.,4.8,0.,4.8
1979-07-17 00:22:23.130 ,3,1,8.,4.8,0.,4.8,0.,4.8,0.,4.8
1979-07-17 00:22:27.930 ,3,1,,0,,0,,0,,0
1979-07-17 00:22:32.730 ,3,1,12.,4.8,0.,4.8,0.,4.8,0.,4.8
1979-07-17 00:22:37.530 ,3,1,7.,4.8,0.,4.8,0.,4.8,1.,4.8
1979-07-17 00:22:42.330 ,3,1,14.,4.8,0.,4.8,0.,4.8,0.,4.8
1979-07-17 00:22:47.130 ,0,1,14.,4.8,0.,4.8,0.,4.8,0.,4.8
1979-07-17 00:22:51.930 ,0,1,17.,4.8,0.,4.8,0.,4.8,0.,4.8
1979-07-17 00:22:56.730 ,0,1,14.,4.8,0.,4.8,0.,4.8,0.,4.8
1979-07-17 00:23:01.530 ,0,1,11.,4.8,0.,4.8,0.,4.8,0.,4.8
1979-07-17 00:23:06.330 ,0,1,15.,4.8,0.,4.8,0.,4.8,0.,4.8
1979-07-17 00:23:11.130 ,4,1,4.,4.8,0.,4.8,0.,4.8,0.,4.8
1979-07-17 00:23:15.930 ,4,1,14.,4.8,0.,4.8,0.,4.8,0.,4.8
1979-07-17 00:23:20.730 ,4,1,9.,4.8,0.,4.8,0.,4.8,0.,4.8
1979-07-17 00:23:25.530 ,4,1,11.,4.8,0.,4.8,0.,4.8,0.,4.8
1979-07-17 00:23:30.330 ,4,1,5.,4.8,0.,4.8,0.,4.8,0.,4.8
1979-07-17 00:23:35.130 ,7,1,11.,4.8,0.,4.8,0.,4.8,1.,4.8
1979-07-17 00:23:39.930 ,7,1,15.,4.8,0.,4.8,0.,4.8,0.,4.8
1979-07-17 00:23:44.730 ,7,1,14.,4.8,0.,4.8,0.,4.8,0.,4.8
1979-07-17 00:23:49.530 ,7,1,5.,4.8,0.,4.8,0.,4.8,0.,4.8
1979-07-17 00:23:54.330 ,7,1,7.,4.8,0.,4.8,0.,4.8,0.,4.8
1979-07-17 00:23:59.130 ,3,1,10.,4.8,0.,4.8,0.,4.8,0.,4.8
1979-07-17 00:24:03.930 ,3,1,7.,4.8,0.,4.8,0.,4.8,0.,4.8
1979-07-17 00:24:08.730 ,3,1,10.,4.8,0.,4.8,0.,4.8,0.,4.8
1979-07-17 00:24:13.530 ,3,1,7.,4.8,0.,4.8,0.,4.8,0.,4.8
1979-07-17 00:24:18.330 ,3,1,10.,4.8,0.,4.8,0.,4.8,0.,4.8
1979-07-17 00:24:23.130 ,0,1,9.,4.8,0.,4.8,0.,4.8,0.,4.8
1979-07-17 00:24:27.930 ,0,1,14.,4.8,0.,4.8,0.,4.8,0.,4.8
1979-07-17 00:24:32.730 ,0,1,8.,4.8,0.,4.8,0.,4.8,1.,4.8
1979-07-17 00:24:37.530 ,0,1,7.,4.8,0.,4.8,0.,4.8,0.,4.8
1979-07-17 00:24:42.330 ,0,1,11.,4.8,0.,4.8,0.,4.8,0.,4.8
1979-07-17 00:24:47.130 ,4,1,9.,4.8,0.,4.8,0.,4.8,0.,4.8
1979-07-17 00:24:51.930 ,4,1,9.,4.8,0.,4.8,0.,4.8,0.,4.8
1979-07-17 00:24:56.730 ,4,1,5.,4.8,0.,4.8,0.,4.8,1.,4.8
1979-07-17 00:25:01.530 ,4,1,12.,4.8,0.,4.8,0.,4.8,0.,4.8
1979-07-17 00:25:06.330 ,4,1,11.,4.8,0.,4.8,0.,4.8,0.,4.8
1979-07-17 00:25:11.130 ,7,1,11.,4.8,0.,4.8,0.,4.8,0.,4.8
1979-07-17 00:25:15.930 ,7,1,9.,4.8,0.,4.8,0.,4.8,0.,4.8
1979-07-17 00:25:20.730 ,7,1,6.,4.8,0.,4.8,0.,4.8,0.,4.8
1979-07-17 00:25:25.530 ,7,1,6.,4.8,0.,4.8,0.,4.8,0.,4.8
1979-07-17 00:25:30.330 ,7,1,11.,4.8,0.,4.8,0.,4.8,0.,4.8
1979-07-17 00:25:35.130 ,3,1,6.,4.8,0.,4.8,0.,4.8,0.,4.8
1979-07-17 00:25:39.930 ,3,1,11.,4.8,0.,4.8,0.,4.8,0.,4.8
1979-07-17 00:25:44.730 ,3,1,16.,4.8,0.,4.8,0.,4.8,0.,4.8
1979-07-17 00:25:49.530 ,3,1,16.,4.8,0.,4.8,0.,4.8,0.,4.8
1979-07-17 00:25:54.330 ,3,1,11.,4.8,0.,4.8,0.,4.8,0.,4.8
1979-07-17 00:25:59.130 ,0,1,11.,4.8,0.,4.8,0.,4.8,1.,4.8
1979-07-17 00:26:03.930 ,0,1,21.,4.8,0.,4.8,0.,4.8,0.,4.8
1979-07-17 00:26:08.730 ,0,1,7.,4.8,0.,4.8,0.,4.8,0.,4.8
1979-07-17 00:26:13.530 ,0,1,19.,4.8,0.,4.8,0.,4.8,0.,4.8
1979-07-17 00:26:18.330 ,0,1,15.,4.8,0.,4.8,0.,4.8,0.,4.8
1979-07-17 00:26:23.130 ,4,1,13.,4.8,0.,4.8,0.,4.8,0.,4.8
1979-07-17 00:26:27.930 ,4,1,18.,4.8,0.,4.8,0.,4.8,0.,4.8
1979-07-17 00:26:32.730 ,4,1,11.,4.8,0.,4.8,0.,4.8,1.,4.8
1979-07-17 00:26:37.530 ,4,1,13.,4.8,0.,4.8,0.,4.8,0.,4.8
1979-07-17 00:26:42.330 ,4,1,12.,4.8,0.,4.8,0.,4.8,0.,4.8
1979-07-17 00:26:47.130 ,7,1,10.,4.8,0.,4.8,0.,4.8,0.,4.8
1979-07-17 00:26:51.930 ,7,1,10.,4.8,0.,4.8,0.,4.8,0.,4.8
1979-07-17 00:26:56.730 ,7,1,17.,4.8,0.,4.8,0.,4.8,0.,4.8
1979-07-17 00:27:01.530 ,7,1,4.,4.8,0.,4.8,0.,4.8,0.,4.8
1979-07-17 00:27:06.330 ,7,1,5.,4.8,0.,4.8,0.,4.8,0.,4.8
1979-07-17 00:27:11.130 ,3,1,10.,4.8,0.,4.8,0.,4.8,0.,4.8
1979-07-17 00:27:15.930 ,3,1,7.,4.8,0.,4.8,0.,4.8,0.,4.8
1979-07-17 00:27:20.730 ,3,1,11.,4.8,0.,4.8,0.,4.8,0.,4.8
1979-07-17 00:27:25.530 ,3,1,7.,4.8,0.,4.8,0.,4.8,0.,4.8
1979-07-17 00:27:30.330 ,3,1,9.,4.8,0.,4.8,0.,4.8,0.,4.8
1979-07-17 00:27:35.130 ,0,1,5.,4.8,0.,4.8,0.,4.8,0.,4.8
1979-07-17 00:27:39.930 ,0,1,7.,4.8,0.,4.8,0.,4.8,0.,4.8
1979-07-17 00:27:44.730 ,0,1,11.,4.8,0.,4.8,0.,4.8,0.,4.8
1979-07-17 00:27:49.530 ,0,1,9.,4.8,0.,4.8,0.,4.8,0.,4.8
1979-07-17 00:27:54.330 ,0,1,6.,4.8,0.,4.8,0.,4.8,0.,4.8
1979-07-17 00:27:59.130 ,4,1,8.,4.8,0.,4.8,0.,4.8,0.,4.8
1979-07-17 00:28:03.930 ,4,1,12.,4.8,0.,4.8,0.,4.8,0.,4.8
1979-07-17 00:28:08.730 ,4,1,4.,4.8,0.,4.8,0.,4.8,0.,4.8
1979-07-17 00:28:13.530 ,4,1,5.,4.8,0.,4.8,0.,4.8,0.,4.8
1979-07-17 00:28:18.330 ,4,1,5.,4.8,0.,4.8,0.,4.8,0.,4.8
1979-07-17 00:28:23.130 ,7,1,7.,4.8,0.,4.8,0.,4.8,0.,4.8
1979-07-17 00:28:27.930 ,7,1,5.,4.8,0.,4.8,0.,4.8,0.,4.8
1979-07-17 00:28:32.730 ,7,1,10.,4.8,0.,4.8,0.,4.8,0.,4.8
1979-07-17 00:28:37.530 ,7,1,5.,4.8,0.,4.8,0.,4.8,0.,4.8
1979-07-17 00:28:42.330 ,7,1,5.,4.8,0.,4.8,0.,4.8,0.,4.8
1979-07-17 00:28:47.130 ,3,1,2.,4.8,0.,4.8,0.,4.8,0.,4.8
1979-07-17 00:28:51.930 ,3,1,9.,4.8,0.,4.8,0.,4.8,0.,4.8
1979-07-17 00:28:56.730 ,3,1,8.,4.8,0.,4.8,0.,4.8,0.,4.8
1979-07-17 00:29:01.530 ,3,1,15.,4.8,0.,4.8,0.,4.8,0.,4.8
1979-07-17 00:29:06.330 ,3,1,10.,4.8,0.,4.8,0.,4.8,0.,4.8
1979-07-17 00:29:11.130 ,0,1,7.,4.8,0.,4.8,0.,4.8,0.,4.8
1979-07-17 00:29:15.930 ,0,1,11.,4.8,0.,4.8,0.,4.8,0.,4.8
1979-07-17 00:29:20.730 ,0,1,5.,4.8,0.,4.8,0.,4.8,0.,4.8
1979-07-17 00:29:25.530 ,0,1,5.,4.8,0.,4.8,0.,4.8,0.,4.8
1979-07-17 00:29:30.330 ,0,1,6.,4.8,0.,4.8,0.,4.8,0.,4.8
1979-07-17 00:29:35.130 ,0,0,7.,4.8,0.,4.8,0.,4.8,0.,4.8
1979-07-17 00:29:39.930 ,0,0,8.,4.8,0.,4.8,0.,4.8,0.,4.8
1979-07-17 00:29:44.730 ,0,0,7.,4.8,0.,4.8,0.,4.8,0.,4.8
1979-07-17 00:29:49.530 ,0,0,7.,4.8,0.,4.8,0.,4.8,1.,4.8
1979-07-17 00:29:54.330 ,0,0,5.,4.8,0.,4.8,0.,4.8,0.,4.8
1979-07-17 00:29:59.130 ,0,0,9.,4.8,0.,4.8,0.,4.8,0.,4.8
1979-07-17 00:30:03.930 ,0,0,11.,4.8,0.,4.8,0.,4.8,0.,4.8
1979-07-17 00:30:08.730 ,0,0,4.,4.8,0.,4.8,0.,4.8,0.,4.8
1979-07-17 00:30:13.530 ,0,0,8.,4.8,0.,4.8,0.,4.8,0.,4.8
1979-07-17 00:30:18.330 ,0,0,1.,4.8,0.,4.8,0.,4.8,0.,4.8
1979-07-17 00:30:23.130 ,5,0,6.,4.8,0.,4.8,0.,4.8,0.,4.8
1979-07-17 00:30:27.930 ,5,0,4.,4.8,0.,4.8,0.,4.8,1.,4.8
1979-07-17 00:30:32.730 ,5,0,6.,4.8,0.,4.8,0.,4.8,0.,4.8
1979-07-17 00:30:37.530 ,5,0,12.,4.8,0.,4.8,0.,4.8,0.,4.8
1979-07-17 00:30:42.330 ,5,0,5.,4.8,0.,4.8,0.,4.8,0.,4.8
1979-07-17 00:30:47.130 ,5,0,7.,4.8,0.,4.8,0.,4.8,0.,4.8
1979-07-17 00:30:51.930 ,5,0,8.,4.8,0.,4.8,0.,4.8,0.,4.8
1979-07-17 00:30:56.730 ,5,0,6.,4.8,0.,4.8,0.,4.8,0.,4.8
1979-07-17 00:31:01.530 ,5,0,5.,4.8,0.,4.8,0.,4.8,0.,4.8
1979-07-17 00:31:06.330 ,5,0,4.,4.8,0.,4.8,0.,4.8,0.,4.8
1979-07-17 00:31:11.130 ,4,0,8.,4.8,0.,4.8,0.,4.8,0.,4.8
1979-07-17 00:31:15.930 ,4,0,6.,4.8,0.,4.8,0.,4.8,0.,4.8
1979-07-17 00:31:20.730 ,4,0,4.,4.8,0.,4.8,0.,4.8,0.,4.8
1979-07-17 00:31:25.530 ,4,0,3.,4.8,0.,4.8,0.,4.8,0.,4.8
1979-07-17 00:31:30.330 ,4,0,6.,4.8,0.,4.8,0.,4.8,0.,4.8
1979-07-17 00:31:35.130 ,4,0,9.,4.8,0.,4.8,0.,4.8,0.,4.8
1979-07-17 00:31:39.930 ,4,0,7.,4.8,0.,4.8,0.,4.8,0.,4.8
1979-07-17 00:31:44.730 ,4,0,10.,4.8,0.,4.8,0.,4.8,0.,4.8
1979-07-17 00:31:49.530 ,4,0,6.,4.8,0.,4.8,0.,4.8,0.,4.8
1979-07-17 00:31:54.330 ,4,0,2.,4.8,0.,4.8,0.,4.8,0.,4.8
1979-07-17 00:31:59.130 ,3,0,10.,4.8,0.,4.8,0.,4.8,0.,4.8
1979-07-17 00:32:03.930 ,3,0,8.,4.8,0.,4.8,0.,4.8,1.,4.8
1979-07-17 00:32:08.730 ,3,0,5.,4.8,0.,4.8,0.,4.8,0.,4.8
1979-07-17 00:32:13.530 ,3,0,7.,4.8,0.,4.8,0.,4.8,0.,4.8
1979-07-17 00:32:18.330 ,3,0,21.,4.8,0.,4.8,0.,4.8,0.,4.8
1979-07-17 00:32:23.130 ,3,0,10.,4.8,0.,4.8,0.,4.8,1.,4.8
1979-07-17 00:32:27.930 ,3,0,10.,4.8,0.,4.8,0.,4.8,0.,4.8
1979-07-17 00:32:32.730 ,3,0,11.,4.8,0.,4.8,0.,4.8,0.,4.8
1979-07-17 00:32:37.530 ,3,0,9.,4.8,0.,4.8,0.,4.8,0.,4.8
1979-07-17 00:32:42.330 ,3,0,8.,4.8,0.,4.8,0.,4.8,1.,4.8
1979-07-17 00:32:47.130 ,2,0,9.,4.8,0.,4.8,0.,4.8,1.,4.8